Location: Newark
(40.9833°N, 0.0333°W)
Time: 07:13:31
(UTC+00:00)

Vanguard 2 Rocket - Pass Details

Date: 01 November 2020
Orbit: 554 x 3326 km, 32.9° (Epoch: 25 November)

Event Time Altitude Azimuth Distance (km) Brightness Sun altitude
Rises 21:07:15 0° 259° (W) 2,863 - -47.2°
Reaches altitude 10° 21:09:45 10° 241° (WSW) 2,120 - -47.6°
Maximum altitude 21:13:18 20° 193° (SSW) 1,810 - -48.2°
Drops below altitude 10° 21:18:02 10° 147° (SSE) 2,932 - -49.0°
Sets 21:22:18 0° 133° (SE) 4,395 - -49.7°
